Location: Beauvezer
(44.1500°N, 6.6000°E)
Time: 01:48:35
(UTC+00:00)

Daily predictions for brighter satellites

Satellite Brightness Start Highest point End
(mag) Time Altitude Azimuth Time Altitude Azimuth Time Altitude Azimuth
ATLAS 2AS CENTAUR R/B 4.3 02:52:20 32° NNE 02:52:20 32° NNE 02:56:08 10° NE
Lacrosse 5 4.3 03:33:29 14° NNE 03:33:29 14° NNE 03:34:22 10° NE
ATLAS 3B R/B 3.4 03:36:30 45° SSE 03:36:30 45° SSE 03:41:19 10° SSE
CZ-4C R/B 3.9 03:47:08 25° NNE 03:47:08 25° NNE 03:49:48 10° NNE
COSMO-SKYMED 1 4.5 03:55:17 10° SE 03:58:57 28° ENE 04:00:08 24° NE
Cosmos 1844 Rocket 3.9 04:02:42 31° NNE 04:02:42 31° NNE 04:05:35 10° NNE
Atlas Centaur 2 4.2 04:00:45 22° SSW 04:00:45 22° SSW 04:05:28 10° SSE
USA 305 4.0 04:16:56 42° NE 04:16:56 42° NE 04:20:25 10° ESE
ATLAS 5 CENTAUR R/B 2.2 04:17:17 49° E 04:17:17 49° E 04:20:56 10° NE
Nadezhda 3 Rocket 4.3 04:16:47 10° N 04:23:02 67° E 04:29:11 10° SSE
USA 306 3.6 04:25:27 49° NE 04:25:27 49° NE 04:29:20 10° ESE
BREEZE-M DEB (TANK) 3.5 04:34:15 44° ENE 04:34:15 44° ENE 04:37:07 10° ENE
ADEOS 3.4 04:29:10 10° NNE 04:34:24 77° WNW 04:39:36 10° SSW
FENGYUN 3A 3.5 04:29:31 10° N 04:34:53 65° WNW 04:40:11 10° SSW
Meteor 1-27 Rocket 4.2 04:30:00 10° N 04:35:49 63° ENE 04:41:40 10° SSE
Cosmos 1844 4.3 04:37:52 38° NNW 04:37:52 38° NNW 04:41:56 10° NNE
ATLAS 2AS CENTAUR R/B 3.9 04:39:48 29° NW 04:40:21 29° NNW 04:46:57 10° NNE
Cosmos 1356 4.3 04:40:06 10° S 04:43:23 48° E 04:46:41 10° NNE
Meteor 1-10 Rocket 4.1 04:41:21 30° NNW 04:44:13 70° W 04:49:52 10° S
Cosmos 1610 Rocket 4.4 04:39:28 10° S 04:45:51 80° W 04:52:16 10° N
SKYMED 2 3.5 04:42:31 10° SSE 04:46:51 87° ENE 04:48:45 33° N
METEOR-M 4.1 04:44:27 10° N 04:49:44 61° WNW 04:54:58 10° SSW
Cosmos 372 Rocket 3.9 04:49:28 46° WSW 04:50:35 56° WNW 04:55:38 10° NNE
COSMOS 2455 2.9 04:49:17 40° W 04:51:01 53° NW 04:56:55 10° NNE
Cosmos 2150 Rocket 4.0 04:45:49 10° SSW 04:51:06 82° ESE 04:56:21 10° NNE
CZ-2C R/B 3.0 04:50:56 17° S 04:51:18 17° S 04:53:31 10° SE
SJ-12 3.7 04:47:23 10° NNE 04:51:28 84° WNW 04:55:31 10° SSW
Cosmos 1707 Rocket 4.1 04:47:29 11° N 04:51:35 56° ENE 04:55:50 10° SSE
Cosmos 2154 Rocket 3.9 04:47:58 10° SSW 04:54:11 70° W 05:00:29 10° N
Cosmos 2298 Rocket 3.9 04:49:21 10° SSW 04:54:37 86° WNW 04:59:58 10° NNE
PSLV R/B 4.0 04:52:58 10° SSE 04:57:05 78° ENE 04:59:50 20° N
Sich 1 3.0 04:55:15 10° S 04:59:41 87° W 05:04:09 10° N
ALOS 4.1 04:55:45 10° N 04:56:56 17° NNW 04:56:56 17° NNW
Cosmos 1295 Rocket 4.3 04:54:48 10° SSW 05:00:51 76° W 05:07:00 10° N
ERS-2 3.7 04:57:28 10° S 04:59:08 23° SSW 04:59:08 23° SSW
Cosmos 1833 Rocket 2.8 04:57:52 18° NNW 05:02:14 76° ENE 05:07:50 10° SSE
Cosmos 2327 Rocket 4.4 04:57:07 10° SSW 05:03:05 58° WNW 05:09:07 10° N
Cosmos 2074 Rocket 4.4 05:00:07 10° SW 05:05:48 37° WNW 05:11:33 10° N
Cosmos 2082 Rocket 3.1 05:01:56 10° NNW 05:07:29 48° ENE 05:12:59 10° SE
SL-4 R/B 1.7 05:06:43 48° NW 05:07:42 83° NNE 05:11:22 10° ESE
EXPRESS MD2 3.7 05:07:41 42° WNW 05:09:01 76° SSW 05:15:57 10° SE
USA 290 4.0 05:07:39 14° N 05:09:58 31° ENE 05:12:52 10° SE
Cosmos 2228 Rocket 3.8 05:11:08 32° WSW 05:11:08 32° WSW 05:14:36 10° SSW
Cosmos 1437 Rocket 3.2 05:12:48 36° WSW 05:12:48 36° WSW 05:15:57 10° SSW
Lacrosse 5 3.5 05:12:41 17° NNW 05:14:03 19° N 05:17:39 10° NE
EO 1 Delta rocket 3.7 05:12:04 10° S 05:16:46 67° W 05:21:25 10° NNW
Cosmos 1818 4.4 05:12:19 10° SSW 05:17:33 53° ESE 05:22:51 10° NE
Cosmos 2341 Rocket 3.9 05:14:38 10° S 05:20:50 81° W 05:27:07 10° N
Meteor 2-12 Rocket 4.4 05:17:28 10° SSW 05:23:36 69° W 05:29:46 10° N
ATLAS 3B R/B 4.2 05:23:49 15° WSW 05:23:49 15° WSW 05:27:42 10° SW
USA 307 2.9 05:22:34 29° WNW 05:24:39 68° SW 05:28:55 10° SE
Meteor PRIRODA 3.9 05:23:22 10° N 05:26:57 45° WNW 05:30:30 10° SW
NOSS 2-1 (C) 4.1 05:25:48 10° SSW 05:29:02 44° ESE 05:32:17 10° NE
CZ-4B R/B 3.3 05:24:53 10° N 05:29:05 43° WNW 05:33:06 10° SW
USA 308 3.0 05:28:59 25° WNW 05:31:18 61° SW 05:35:31 10° SE
SJ-7 4.3 05:29:25 10° N 05:33:33 82° WNW 05:37:42 10° SSW
Cosmos 2278 Rocket 2.2 05:28:30 10° SW 05:34:06 62° WNW 05:39:44 10° NNE
CZ-4C R/B 3.8 05:32:19 15° NW 05:34:10 17° NNW 05:38:14 10° NNE
NOSS 2-1 (D) 3.7 05:31:15 10° SSW 05:34:32 52° ESE 05:37:51 10° NE
COSMO-SKYMED 1 3.4 05:31:16 10° SSW 05:35:03 29° W 05:37:21 18° NW
Okean O Rocket 3.1 05:34:31 10° NNE 05:38:46 41° E 05:42:58 10° S
Cosmos 1862 Rocket 3.5 05:34:30 10° N 05:38:58 88° W 05:43:20 10° S
Envisat 3.0 05:34:34 10° NNE 05:39:42 89° ESE 05:44:46 10° SSW
NOAA 6 4.1 05:37:59 10° NNE 05:43:09 85° ESE 05:48:16 10° SSW
YAOGAN 6 2.4 05:41:26 10° N 05:44:55 74° WNW 05:48:23 10° SSW
Cosmos 1844 Rocket 4.3 05:44:24 14° NW 05:44:56 14° NW 05:47:48 10° N
Cosmos 494 Rocket 4.1 05:39:55 10° NNW 05:44:56 54° WSW 05:49:53 10° S
Cosmos 1515 4.1 05:42:13 10° N 05:46:00 65° E 05:49:46 10° SSE
Cosmos 1933 Rocket 4.2 05:42:29 10° S 05:46:50 59° E 05:51:13 10° NNE
Cosmos 1666 Rocket 3.9 05:43:52 10° SSW 05:47:57 41° WNW 05:52:06 10° N
SMAP 3.6 05:43:35 10° NNE 05:48:13 63° E 05:52:49 10° S
COSMOS 2406 3.8 05:44:31 12° NW 05:49:23 38° WSW 05:54:40 10° S
Cosmos 1943 Rocket 4.4 05:46:03 10° SSE 05:50:42 29° ESE 05:55:24 10° NE
Cosmos 1689 Rocket 3.8 05:49:59 10° SW 05:51:46 15° W 05:51:46 15° W
FALCON 9 DEB 4.4 05:49:54 16° W 05:51:51 27° SW 05:54:50 10° SSE
BREEZE-M (TANK) 2.8 05:45:06 10° WSW 05:52:34 80° SSE 05:55:10 10° ENE
USA 305 3.7 05:53:05 15° WNW 05:56:14 37° SW 06:00:11 10° SSE
Cosmos 1242 Rocket 2.9 05:56:30 10° NNW 06:00:01 44° W 06:03:30 10° SSW
H-2A R/B 2.2 05:56:52 10° N 06:00:39 64° WNW 06:04:28 10° SSW
Meteor 2-4 Rocket 4.4 05:55:21 10° N 06:01:05 58° ENE 06:06:35 10° SSE
Cosmos 1271 Rocket 3.8 05:57:30 10° N 06:01:15 47° ENE 06:05:01 10° SSE
ATLAS 5 CENTAUR R/B 2.8 05:58:53 12° W 06:01:38 22° NW 06:05:14 10° NNE
MOS 1 Rocket 4.0 05:58:52 10° SSW 06:03:32 39° W 06:08:29 10° NNW
USA 306 3.9 06:01:36 12° WNW 06:05:01 32° SW 06:08:51 10° SSE
CZ-2C R/B 2.8 05:59:38 10° SSE 06:05:04 84° ENE 06:10:24 10° NNW
BREEZE-M R/B 4.3 05:54:51 10° WSW 06:05:36 83° SSE 06:10:23 10° ENE
Cosmos 2366 rocket 4.1 06:00:45 10° SSW 06:06:57 59° WNW 06:13:08 10° N
Cosmos 1633 Rocket 3.8 06:04:03 10° SW 06:07:59 31° WNW 06:11:56 10° N
USA 229 DEB 4.2 06:02:33 10° NW 06:09:53 72° NE 06:17:36 10° SE
USA 229 4.2 06:02:41 10° NW 06:09:59 72° NE 06:17:41 10° SE
NOAA 12 4.1 06:05:59 10° NNE 06:11:16 87° WNW 06:16:30 10° SSW
Okean 1-7 3.4 06:07:17 10° N 06:11:33 65° E 06:15:46 10° SSE
Cosmos 2218 Rocket 4.2 06:06:41 10° SSW 06:12:43 51° WNW 06:18:43 10° N
FALCON 9 DEB 4.5 06:10:31 10° NW 06:13:17 26° NNE 06:16:04 10° E
Cosmos 1125 Rocket 4.3 06:09:17 10° WSW 06:13:48 29° WNW 06:18:20 10° N
H-2A R/B 4.0 06:11:38 10° NNW 06:14:38 21° WNW 06:17:35 10° WSW
CORIOLIS 4.3 06:10:44 10° NNE 06:16:13 87° ESE 06:21:38 10° SSW
NOSS 3-1 (C) 4.2 06:11:16 10° NW 06:18:54 85° SW 06:27:40 10° SSE
FALCON 9 DEB 4.4 06:16:15 10° NW 06:19:03 27° NNE 06:21:51 10° E
Cosmos 1269 Rocket 4.2 06:15:53 10° NNW 06:21:01 53° WSW 06:26:07 10° S
Cosmos 1869 Rocket 4.4 06:18:11 10° S 06:22:32 57° E 06:26:56 10° NNE
Iridium 2 3.7 06:19:15 10° N 06:23:01 90° E 06:26:46 10° S
NOSS 3-1 (A) 4.4 06:16:38 10° NW 06:24:11 74° NE 06:32:54 10° SE
FengYun 1-2 T 4.3 06:21:27 10° NNE 06:27:00 87° ESE 06:32:32 10° SSW
